Location: Moena
(46.3667°N, 11.6500°E)
Time: 14:49:33
(UTC+00:00)

Cosmos 2333 Rocket - Pass Details

Date: 18 June 2021
Orbit: 841 x 861 km, 70.8° (Epoch: 26 July)

Event Time Altitude Azimuth Distance (km) Brightness Sun altitude
Exits shadow 20:42:32 - 187° (S) 2,754 4.4 -12.2°
Reaches altitude 10° 20:43:15 10° 185° (S) 2,487 4.2 -12.3°
Maximum altitude 20:48:47 53° 110° (ESE) 1,049 2.4 -12.8°
Drops below altitude 10° 20:54:20 10° 35° (NE) 2,493 4.9 -13.3°
Sets 20:56:50 0° 31° (NNE) 3,430 5.7 -13.6°
